SCP
2 2 2 2 1 1 0 0 0 0 0 0 0 0 0 0 0 0 0 0 0 0 0 0 0 0 0 0 0 0 0 0
2 1 0 0 0 0 0 0 0 0 0 0 0 0 0 0 0 0 0 0 0 0 0 0 0 0 0 0 0 0 0 0
0 0 0 0 0 0 0 0 0 0 0 0 0 0 0 0 0 0 0 0 0 0 0 0 0 0 0 0 0 0 0 0
0 0 0 0 0 0 0 0 0 0 0 0 0 0 0 0 0 0 0 0 0 0 0 0 0 0 0 0 0 0 0 0
0 0 0 0 0 0 0 0 0 0 0 0 0 0 0 0 0 0 0 0 0 0 0 0 0 0 0 0 0 0 0 0
0 0 0 0 0 0 0 0 0 0 0 0 0 0 0 0 0 0 0 0 0 0 0 0 0 0 0 0 0 0 0 0
0 0 0 0 0 0 0 0 0 0 0 0 0 0 0 0 0 0 0 0 0 0 0 0 0 0 0 0 0 0 0 0
0 0 0 0 0 0 0 0 0 0 0 0 0 0 0 0 0 0 0 0 0 0 0 0 0 0 0 0 0 0 0 0
0 0 0 0 0 0 0 0 0 0 0 0 0 0 0 0 0 0 0 0 0 0 0 0 0 0 0 0 0 0 0 0
0 0 0 0 0 0 0 0 0 0 0 0 0 0 0 0 0 0 0 0 0 0 0 0 0 0 0 0 0 0 0 0
0 0 0 0 0 0 0 0 0 0 0 0 0 0 0 0 0 0 0 0 0 0 0 0 0 0 0 0 0 0 0 0
0 0 0 0 0 0 0 0 0 0 0 0 0 0 0 0 0 0 0 0 0 0 0 0 0 0 0 0 0 0 0 0
0 0 0 0 0 0 0 0 0 0 0 0 0 0 0 0 0 0 0 0 0 0 0 0 0 0 0 0 0 0 0 0
0 0 0 0 0 0 0 0 0 0 0 0 0 0 0 0 0 0 0 0 0 0 0 0 0 0 0 0 0 0 0 -0
0 0 0 0 0 0 0 0 0 0 0 0 0 0 0 0 0 0 0 0 0 0 0 0 0 0 0 0 -0 -0 0 -0
0 0 0 0 0 0 0 0 0 0 0 0 0 0 0 0 0 0 0 0 0 0 0 0 0 0 0 -0 -0 -0 0 0
0 0 0 0 0 0 0 0 0 0 0 0 0 0 0 0 0 0 0 0 0 0 0 0 0 0 0 -0 -0 0 0 0
0 0 0 0 0 0 0 0 0 0 0 0 0 0 0 0 0 0 0 0 0 0 0 0 0 0 0 0 0 0 0 0
0 0 0 0 0 0 0 0 0 0 0 0 0 0 0 0 0 0 0 0 0 0 0 0 0 0 0 0 0 0 0 0
0 0 0 0 0 0 0 0 0 0 0 0 0 0 0 0 0 0 0 0 0 0 0 0 -0 0 0 0 0 0 0 0
Wind_Speed_500mb
85 87 88 83 79 78 72 70 67 63 60 63 61 59 53 50 49 48 40 34 30 23 15 9 7 6 5 4 5 4 6 2
76 84 90 84 78 75 72 67 65 66 66 68 61 55 51 49 48 43 39 31 24 16 10 7 7 7 7 6 4 4 1 1
76 88 89 85 83 81 75 72 68 68 73 68 63 61 57 53 46 41 35 26 18 12 11 11 11 10 9 10 5 3 2 3
75 82 89 89 87 83 78 75 75 75 75 68 67 62 54 47 42 36 29 23 20 18 18 16 13 11 8 7 9 5 5 1
83 88 90 89 86 82 77 74 76 75 76 72 64 56 49 43 38 32 28 24 22 20 19 16 14 13 11 10 7 6 7 7
89 92 90 88 84 80 75 67 69 66 62 58 52 49 47 41 36 31 28 26 24 23 21 18 14 12 11 10 7 4 3 3
92 93 87 78 73 71 69 66 64 61 58 54 49 46 44 40 36 33 30 29 25 23 20 18 15 13 12 11 12 5 4 5
94 86 77 75 69 68 69 66 62 59 54 51 47 43 41 39 37 33 31 28 27 20 18 15 13 11 9 8 10 5 6 7
79 74 74 70 67 67 68 63 59 54 51 47 45 44 43 38 35 30 27 24 22 19 16 16 13 12 12 12 10 12 8 9
71 76 71 64 61 64 65 61 55 52 52 47 42 39 36 32 30 27 24 21 18 17 16 15 16 17 20 20 19 18 15 13
69 71 67 58 55 55 63 56 53 52 49 45 41 38 36 31 29 24 21 16 15 14 15 15 16 15 20 31 28 30 25 18
66 64 61 59 54 56 58 54 51 50 48 43 39 37 36 31 26 21 20 19 17 18 17 15 14 16 18 17 18 20 26 20
58 57 57 56 53 55 52 49 48 48 44 40 38 36 34 31 27 26 21 19 24 18 17 16 14 15 25 26 21 24 23 24
56 52 54 51 50 50 47 43 42 44 42 37 35 34 30 28 27 28 26 29 27 27 24 20 23 24 24 23 26 29 26 28
53 50 53 47 46 48 44 41 39 39 39 38 36 32 29 28 26 25 31 30 24 23 23 22 20 23 22 23 26 28 36 27
54 53 47 42 42 43 40 38 40 41 39 43 34 31 29 27 26 24 22 19 16 18 19 21 22 21 22 22 28 25 18 24
50 45 39 35 40 41 38 38 41 41 36 35 34 31 29 30 28 26 22 20 16 13 13 20 19 25 30 31 30 18 18 21
56 49 41 43 43 43 42 39 38 37 36 42 36 33 31 28 26 24 21 17 16 13 10 9 9 16 12 15 18 17 17 19
44 44 39 38 39 39 36 34 35 36 36 32 34 28 27 24 23 20 17 16 14 11 8 8 16 14 11 13 15 16 16 18
43 41 37 35 34 35 35 33 31 32 30 28 28 27 25 23 21 18 16 15 13 9 6 11 22 12 11 12 14 15 16 17
Wind_Direction_500mb
138 144 145 152 154 155 158 163 167 172 171 168 156 149 150 152 155 162 164 164 162 166 173 198 238 235 201 162 133 96 71 46
134 135 145 148 150 154 158 160 165 166 165 160 155 152 153 150 147 147 149 153 157 164 181 196 179 156 158 148 140 80 140 213
132 135 142 148 150 154 157 158 158 159 157 150 149 149 148 147 145 145 146 146 151 155 164 164 158 167 169 168 150 131 210 232
129 137 144 150 152 152 155 153 152 155 148 144 144 146 143 143 141 141 145 148 152 149 143 141 139 130 126 137 143 165 173 122
132 135 140 145 147 148 147 147 149 152 147 143 141 139 131 130 131 132 133 133 127 118 114 113 109 104 96 95 119 152 231 291
127 128 129 133 135 136 132 132 134 133 131 131 128 128 126 123 125 127 122 116 113 110 105 98 93 87 78 74 74 79 52 12
126 125 125 126 129 129 130 129 128 128 128 128 129 128 125 122 120 118 115 111 102 96 95 93 81 77 67 62 81 51 35 18
122 123 125 124 127 128 127 127 127 126 127 127 124 125 125 123 119 114 107 100 96 88 82 77 75 61 52 50 77 35 14 3
120 121 121 123 127 128 124 125 123 123 124 124 125 128 125 123 117 112 107 106 91 77 70 64 57 59 47 45 64 50 46 15
120 120 120 123 126 126 123 120 121 122 122 122 122 122 121 122 123 116 109 97 83 73 77 74 62 53 52 42 35 29 34 31
119 118 118 119 122 124 120 119 123 122 120 121 118 117 119 121 118 113 102 88 76 76 84 82 76 60 23 12 19 16 22 25
117 117 117 116 119 122 120 121 122 123 122 122 121 120 121 116 106 99 90 79 83 81 81 81 69 52 45 42 21 16 4 17
116 116 117 117 119 119 121 123 125 123 122 122 121 119 118 118 115 100 89 103 112 94 86 95 77 56 45 39 30 28 28 32
114 114 113 115 115 116 120 124 127 126 123 123 126 123 118 115 112 115 101 98 99 96 101 90 72 60 48 39 38 34 38 59
110 112 114 111 113 117 119 122 125 125 127 126 127 123 123 121 115 112 112 105 94 85 74 67 74 59 49 42 48 42 31 47
115 112 108 111 114 111 116 121 122 123 126 124 121 121 120 123 125 122 114 108 96 77 67 53 55 49 40 43 61 36 22 22
113 113 107 111 110 109 113 116 118 116 119 121 122 120 124 124 123 125 122 113 107 92 55 26 34 39 32 33 49 37 28 23
120 116 117 112 110 112 113 114 118 124 132 130 123 120 118 121 121 117 116 114 107 99 84 55 37 32 31 24 27 32 25 20
116 116 116 114 112 112 115 116 116 118 121 125 129 123 121 119 116 119 119 115 106 99 79 58 98 62 37 32 26 25 21 16
113 108 108 110 111 114 116 118 120 122 126 126 129 127 123 123 122 119 115 111 110 106 84 53 71 56 41 30 25 20 15 9
Wind_Speed_850mb
85 87 88 83 79 78 72 70 67 63 60 63 61 59 53 50 49 48 40 34 30 23 15 9 7 6 5 4 5 4 6 2
76 84 90 84 78 75 72 67 65 66 66 68 61 55 51 49 48 43 39 31 24 16 10 7 7 7 7 6 4 4 1 1
76 88 89 85 83 81 75 72 68 68 73 68 63 61 57 53 46 41 35 26 18 12 11 11 11 10 9 10 5 3 2 3
75 82 89 89 87 83 78 75 75 75 75 68 67 62 54 47 42 36 29 23 20 18 18 16 13 11 8 7 9 5 5 1
83 88 90 89 86 82 77 74 76 75 76 72 64 56 49 43 38 32 28 24 22 20 19 16 14 13 11 10 7 6 7 7
89 92 90 88 84 80 75 67 69 66 62 58 52 49 47 41 36 31 28 26 24 23 21 18 14 12 11 10 7 4 3 3
92 93 87 78 73 71 69 66 64 61 58 54 49 46 44 40 36 33 30 29 25 23 20 18 15 13 12 11 12 5 4 5
94 86 77 75 69 68 69 66 62 59 54 51 47 43 41 39 37 33 31 28 27 20 18 15 13 11 9 8 10 5 6 7
79 74 74 70 67 67 68 63 59 54 51 47 45 44 43 38 35 30 27 24 22 19 16 16 13 12 12 12 10 12 8 9
71 76 71 64 61 64 65 61 55 52 52 47 42 39 36 32 30 27 24 21 18 17 16 15 16 17 20 20 19 18 15 13
69 71 67 58 55 55 63 56 53 52 49 45 41 38 36 31 29 24 21 16 15 14 15 15 16 15 20 31 28 30 25 18
66 64 61 59 54 56 58 54 51 50 48 43 39 37 36 31 26 21 20 19 17 18 17 15 14 16 18 17 18 20 26 20
58 57 57 56 53 55 52 49 48 48 44 40 38 36 34 31 27 26 21 19 24 18 17 16 14 15 25 26 21 24 23 24
56 52 54 51 50 50 47 43 42 44 42 37 35 34 30 28 27 28 26 29 27 27 24 20 23 24 24 23 26 29 26 28
53 50 53 47 46 48 44 41 39 39 39 38 36 32 29 28 26 25 31 30 24 23 23 22 20 23 22 23 26 28 36 27
54 53 47 42 42 43 40 38 40 41 39 43 34 31 29 27 26 24 22 19 16 18 19 21 22 21 22 22 28 25 18 24
50 45 39 35 40 41 38 38 41 41 36 35 34 31 29 30 28 26 22 20 16 13 13 20 19 25 30 31 30 18 18 21
56 49 41 43 43 43 42 39 38 37 36 42 36 33 31 28 26 24 21 17 16 13 10 9 9 16 12 15 18 17 17 19
44 44 39 38 39 39 36 34 35 36 36 32 34 28 27 24 23 20 17 16 14 11 8 8 16 14 11 13 15 16 16 18
43 41 37 35 34 35 35 33 31 32 30 28 28 27 25 23 21 18 16 15 13 9 6 11 22 12 11 12 14 15 16 17
Wind_Direction_850mb
138 144 145 152 154 155 158 163 167 172 171 168 156 149 150 152 155 162 164 164 162 166 173 198 238 235 201 162 133 96 71 46
134 135 145 148 150 154 158 160 165 166 165 160 155 152 153 150 147 147 149 153 157 164 181 196 179 156 158 148 140 80 140 213
132 135 142 148 150 154 157 158 158 159 157 150 149 149 148 147 145 145 146 146 151 155 164 164 158 167 169 168 150 131 210 232
129 137 144 150 152 152 155 153 152 155 148 144 144 146 143 143 141 141 145 148 152 149 143 141 139 130 126 137 143 165 173 122
132 135 140 145 147 148 147 147 149 152 147 143 141 139 131 130 131 132 133 133 127 118 114 113 109 104 96 95 119 152 231 291
127 128 129 133 135 136 132 132 134 133 131 131 128 128 126 123 125 127 122 116 113 110 105 98 93 87 78 74 74 79 52 12
126 125 125 126 129 129 130 129 128 128 128 128 129 128 125 122 120 118 115 111 102 96 95 93 81 77 67 62 81 51 35 18
122 123 125 124 127 128 127 127 127 126 127 127 124 125 125 123 119 114 107 100 96 88 82 77 75 61 52 50 77 35 14 3
120 121 121 123 127 128 124 125 123 123 124 124 125 128 125 123 117 112 107 106 91 77 70 64 57 59 47 45 64 50 46 15
120 120 120 123 126 126 123 120 121 122 122 122 122 122 121 122 123 116 109 97 83 73 77 74 62 53 52 42 35 29 34 31
119 118 118 119 122 124 120 119 123 122 120 121 118 117 119 121 118 113 102 88 76 76 84 82 76 60 23 12 19 16 22 25
117 117 117 116 119 122 120 121 122 123 122 122 121 120 121 116 106 99 90 79 83 81 81 81 69 52 45 42 21 16 4 17
116 116 117 117 119 119 121 123 125 123 122 122 121 119 118 118 115 100 89 103 112 94 86 95 77 56 45 39 30 28 28 32
114 114 113 115 115 116 120 124 127 126 123 123 126 123 118 115 112 115 101 98 99 96 101 90 72 60 48 39 38 34 38 59
110 112 114 111 113 117 119 122 125 125 127 126 127 123 123 121 115 112 112 105 94 85 74 67 74 59 49 42 48 42 31 47
115 112 108 111 114 111 116 121 122 123 126 124 121 121 120 123 125 122 114 108 96 77 67 53 55 49 40 43 61 36 22 22
113 113 107 111 110 109 113 116 118 116 119 121 122 120 124 124 123 125 122 113 107 92 55 26 34 39 32 33 49 37 28 23
120 116 117 112 110 112 113 114 118 124 132 130 123 120 118 121 121 117 116 114 107 99 84 55 37 32 31 24 27 32 25 20
116 116 116 114 112 112 115 116 116 118 121 125 129 123 121 119 116 119 119 115 106 99 79 58 98 62 37 32 26 25 21 16
113 108 108 110 111 114 116 118 120 122 126 126 129 127 123 123 122 119 115 111 110 106 84 53 71 56 41 30 25 20 15 9